TimeCDT,TemperatureF,Dew PointF,Humidity,Sea Level PressureIn,VisibilityMPH,Wind Direction,Wind SpeedMPH,Gust SpeedMPH,PrecipitationIn,Events,Conditions,WindDirDegrees,DateUTC
12:53 AM,75.9,72.0,87,30.00,10.0,ESE,6.9,-,N/A,,Clear,110,2013-10-02 05:53:00
1:53 AM,75.9,72.0,87,30.00,10.0,ESE,3.5,-,N/A,,Clear,120,2013-10-02 06:53:00
2:53 AM,75.9,72.0,87,29.99,10.0,East,4.6,-,N/A,,Clear,100,2013-10-02 07:53:00
3:53 AM,75.9,72.0,87,29.98,10.0,East,4.6,-,N/A,,Clear,90,2013-10-02 08:53:00
4:53 AM,75.9,72.0,87,29.99,10.0,ESE,4.6,-,N/A,,Clear,110,2013-10-02 09:53:00
5:34 AM,75.2,73.4,94,29.99,10.0,East,3.5,-,N/A,,Scattered Clouds,100,2013-10-02 10:34:00
5:43 AM,75.2,73.4,94,29.99,10.0,Calm,Calm,-,N/A,,Mostly Cloudy,0,2013-10-02 10:43:00
5:53 AM,75.9,73.0,91,29.99,10.0,ENE,3.5,-,N/A,,Mostly Cloudy,70,2013-10-02 10:53:00
6:28 AM,75.2,71.6,89,30.01,10.0,East,4.6,-,N/A,,Scattered Clouds,100,2013-10-02 11:28:00
6:53 AM,75.9,72.0,87,30.00,9.0,Calm,Calm,-,N/A,,Clear,0,2013-10-02 11:53:00
7:53 AM,75.0,71.1,87,30.03,10.0,East,6.9,-,N/A,,Partly Cloudy,100,2013-10-02 12:53:00
8:53 AM,78.1,71.1,79,30.04,10.0,ESE,8.1,-,N/A,,Partly Cloudy,110,2013-10-02 13:53:00
9:53 AM,81.0,71.1,72,30.03,10.0,SE,8.1,-,N/A,,Clear,130,2013-10-02 14:53:00
10:53 AM,84.9,71.1,63,30.03,10.0,East,6.9,-,N/A,,Clear,90,2013-10-02 15:53:00
11:53 AM,87.1,70.0,57,30.03,10.0,SE,6.9,-,N/A,,Clear,140,2013-10-02 16:53:00
12:53 PM,87.1,71.1,59,30.00,10.0,ESE,3.5,-,N/A,,Partly Cloudy,110,2013-10-02 17:53:00
1:53 PM,89.1,69.1,52,29.98,10.0,ESE,6.9,-,N/A,,Clear,110,2013-10-02 18:53:00
2:53 PM,89.1,69.1,52,29.96,10.0,ESE,9.2,-,N/A,,Scattered Clouds,120,2013-10-02 19:53:00
3:53 PM,89.1,68.0,50,29.95,10.0,East,6.9,-,N/A,,Clear,90,2013-10-02 20:53:00
4:53 PM,89.1,69.1,52,29.95,10.0,SE,6.9,-,N/A,,Scattered Clouds,130,2013-10-02 21:53:00
5:53 PM,88.0,69.1,53,29.95,10.0,East,5.8,-,N/A,,Clear,90,2013-10-02 22:53:00
6:53 PM,84.0,70.0,63,29.96,10.0,ESE,6.9,-,N/A,,Clear,110,2013-10-02 23:53:00
7:53 PM,82.0,69.1,65,29.96,10.0,ESE,6.9,-,N/A,,Clear,110,2013-10-03 00:53:00
8:53 PM,80.1,71.1,74,29.99,10.0,East,6.9,-,N/A,,Clear,100,2013-10-03 01:53:00
9:53 PM,79.0,72.0,79,30.00,10.0,East,5.8,-,N/A,,Clear,100,2013-10-03 02:53:00
10:53 PM,79.0,73.0,82,30.00,10.0,ESE,5.8,-,N/A,,Clear,120,2013-10-03 03:53:00
11:53 PM,78.1,73.0,84,30.00,10.0,East,5.8,-,N/A,,Clear,100,2013-10-03 04:53:00